This is the latest recevied weather packets stored in our database for station/object NA9VY-8. If no packets are shown the sender has not sent any weather packets the latest 10 day(s).
| Time | Temp. | Humidity | Pressure | Rain* | Wind** | Luminosity | Snow |
|---|---|---|---|---|---|---|---|
| 1777571756 | 14.44° C | 46% | 1021.7 hPa | 0 mm | - | 71 W/m² | - |
| 1777571454 | 14.44° C | 47% | 1021.9 hPa | 0 mm | - | 77 W/m² | - |
| 1777571149 | 14.44° C | 42% | 1022.1 hPa | 0 mm | - | 71 W/m² | - |
| 1777570845 | 15° C | 44% | 1022 hPa | 0 mm | - | 69 W/m² | - |
| 1777570541 | 14.44° C | 44% | 1022 hPa | 0 mm | - | 458 W/m² | - |
| 1777570239 | 13.89° C | 43% | 1022.3 hPa | 0 mm | - | 84 W/m² | - |
| 1777569933 | 13.89° C | 45% | 1022.2 hPa | 0 mm | - | 596 W/m² | - |
| 1777569630 | 13.89° C | 46% | 1022.3 hPa | 0 mm | - | 82 W/m² | - |
| 1777569326 | 13.89° C | 46% | 1022.3 hPa | 0 mm | - | 444 W/m² | - |
| 1777569022 | 13.89° C | 44% | 1022.6 hPa | 0 mm | - | 257 W/m² | - |
| 1777568719 | 13.89° C | 44% | 1022.6 hPa | 0 mm | - | 72 W/m² | - |
| 1777568417 | 13.89° C | 44% | 1022.4 hPa | 0 mm | - | 72 W/m² | - |
| 1777568114 | 13.33° C | 46% | 1022.4 hPa | 0 mm | - | 691 W/m² | - |
| 1777567810 | 13.33° C | 44% | 1022.3 hPa | 0 mm | - | 637 W/m² | - |
| 1777567506 | 13.33° C | 45% | 1022.4 hPa | 0 mm | - | 651 W/m² | - |
| 1777567204 | 13.33° C | 44% | 1022.5 hPa | 0 mm | - | 351 W/m² | - |
| 1777566902 | 12.78° C | 44% | 1022.6 hPa | 0 mm | - | 82 W/m² | - |
| 1777566600 | 13.33° C | 46% | 1022.5 hPa | 0 mm | - | 91 W/m² | - |
| 1777566297 | 13.33° C | 44% | 1022.5 hPa | 0 mm | - | 679 W/m² | - |
| 1777565994 | 13.33° C | 46% | 1022.6 hPa | 0 mm | - | 619 W/m² | - |
| 1777565689 | 12.78° C | 47% | 1023 hPa | 0 mm | - | 666 W/m² | - |
| 1777565386 | 12.78° C | 46% | 1023 hPa | 0 mm | - | 815 W/m² | - |
| 1777565082 | 12.78° C | 48% | 1023.1 hPa | 0 mm | - | 741 W/m² | - |
| 1777564778 | 12.78° C | 48% | 1023.1 hPa | 0 mm | - | 843 W/m² | - |
| 1777564473 | 12.22° C | 48% | 1023.2 hPa | 0 mm | - | 789 W/m² | - |
* Rain latest hour (hover to see other rain measurements)
** Current wind speed in m/s (hover to see current wind gust speed)